Regional Weather Roundup
Issued by NWS

Home | Current Version | Previous Version | Graphics & Text | Print | Product List | Glossary On
Versions: 1 2 3 4 5 6 7 8 9 10 11 12 13 14 15 16 17 18 19 20 21 22 23 24 25 26 27 28 29 30 31 32 33 34 35 36 37 38 39 40 41 42 43 44 45 46 47 48 49 50
000
ASUS43 KDTX 280501
RWRMI
MICHIGAN HOURLY REGIONAL WEATHER ROUNDUP
NATIONAL WEATHER SERVICE DETROIT/PONTIAC MI
100 AM EDT FRI APR 28 2017

NOTE: "FAIR" INDICATES FEW OR NO CLOUDS BELOW 12,000 FEET WITH NO
SIGNIFICANT WEATHER AND/OR OBSTRUCTION TO VISIBILITY.

MIZ047>049-052>055-059>063-066>070-074>076-081>083-280600-
SOUTHEAST LOWER MICHIGAN

CITY           SKY/WX    TMP DP  RH WIND       PRES   REMARKS
ADRIAN         CLOUDY    50  40  68 W13G22    29.87R
ALMA           CLOUDY    45  37  75 SW16G24   29.81R
ANN ARBOR      CLOUDY    50  39  66 SW20      29.84R
BAD AXE        CLOUDY    47  36  64 W20G29    29.81R
CARO           CLOUDY    47  38  68 SW13      29.80R
DETROIT CITY   CLOUDY    51  39  63 W10G21    29.83S
DETROIT        CLOUDY    52  39  61 SW14      29.85R
FLINT          CLOUDY    49  39  68 SW8       29.81S
GROSSE ILE     CLOUDY    51  41  67 W9        29.84R
HILLSDALE      CLOUDY    46  36  66 W16G22    29.85R
HOWELL         CLOUDY    49  37  63 SW12      29.82R

CITY           SKY/WX    TMP DP  RH WIND       PRES   REMARKS
JACKSON        CLOUDY    49  37  63 SW14      29.84R
LAMBERTVILLE   CLOUDY    51  42  71 W9        29.86R
LANSING        CLOUDY    48  37  65 SW18G28   29.83R
LAPEER         NOT AVBL
MASON          CLOUDY    49  40  71 SW8       29.83R
MONROE         CLOUDY    51  40  64 W20G25    29.85R
MT. CLEMENS    CLOUDY    51  39  62 W14G22    29.81S
PONTIAC        CLOUDY    49  37  63 SW12      29.81S
PORT HOPE        N/A     48  37  65 W9G28     29.78R
PORT HURON     CLOUDY    50  36  57 SW6       29.84R
TRI CITIES     CLOUDY    46  38  73 W13G23    29.80R
MIDLAND        CLOUDY    46  36  68 W12G23    29.79R
TROY           MOCLDY    51  34  52 W12G22    29.84F
SAGINAW HB     CLOUDY    46  34  61 SW21G26   29.80R
$$
MIZ043>046-050>051-056>058-064>065-071>073-077>080-280600-
SOUTHWEST LOWER MICHIGAN

CITY           SKY/WX    TMP DP  RH WIND       PRES   REMARKS
BATTLE CREEK   CLOUDY    47  39  74 SW17G26   29.86R
BENTON HARBOR  CLEAR     45  36  70 W15G23    29.87R
BIG RAPIDS     CLOUDY    40  35  81 SW15G21   29.77R WCI  32
COLDWATER      CLOUDY    48  37  64 W22       29.87R
FREMONT        CLOUDY    41  36  80 SW10G16   29.80R
HOLLAND        CLOUDY    44  36  73 SW18G25   29.85R
GRAND RAPIDS   CLOUDY    44  37  76 W15       29.83R
IONIA          CLOUDY    45  36  72 W17G24    29.82R
KALAMAZOO      CLOUDY    47  36  65 W13       29.87R
LUDINGTON      CLOUDY    41  37  87 SW16G25   29.77R
MARSHALL       CLOUDY    48  37  65 W12G23    29.85R
MOUNT PLEASANT CLOUDY    43  36  76 SW16G23   29.79R
MUSKEGON       CLOUDY    44  37  76 SW14      29.82R
SOUTH HAVEN    CLOUDY    44  37  76 SW14G20   29.87R
$$
MIZ016>042-280600-
NORTHERN LOWER MICHIGAN

CITY           SKY/WX    TMP DP  RH WIND       PRES   REMARKS
ALPENA         CLOUDY    44  33  65 SW8       29.74R
BEAVER ISLAND  CLOUDY    38  35  89 SW12      29.69R WCI  30
BELLAIRE       CLOUDY    42  34  73 SW6       29.72R
CADILLAC       RAIN      39  37  90 W15G26    29.73R WCI  31
CHARLEVOIX     CLOUDY    41  35  79 SW14      29.73R
FRANKFORT      CLOUDY    41  37  86 SW9G21    29.73R
GAYLORD        CLOUDY    41  32  70 SW12      29.70R
GRAYLING       CLOUDY    40  35  80 SW3       29.72S
HARBOR SPRINGS CLOUDY    38  35  88 W6        29.70R WCI  34
HOUGHTON LAKE  CLOUDY    42  37  82 SW13      29.73R
MANISTEE       CLOUDY    42  37  82 SW12      29.76R
OSCODA         DRIZZLE   46  36  68 W15       29.76R
PELLSTON       CLOUDY    40  32  73 W12G17    29.70R WCI  33
ROGERS CITY    CLOUDY    42  32  68 SW7       29.72R
TRAVERSE CITY  LGT RAIN  41  38  89 SW7       29.71R FOG
$$
MIZ007>008-015-280600-
EASTERN UPPER MICHIGAN

CITY           SKY/WX    TMP DP  RH WIND       PRES   REMARKS
KINROSS        CLOUDY    35  32  88 SW6       29.67R WCI  30
MACKINAC ISLAN CLOUDY    37  35  91 SW14G22   29.69R WCI  29
NEWBERRY       CLOUDY    34  32  94 SW8       29.64S WCI  27
S. S. MARIE    CLOUDY    35  32  88 W5        29.66R WCI  31
MUNISING         N/A     33  31  92 CALM      29.66R
$$
MIZ004>006-011>014-085-280600-
CENTRAL UPPER MICHIGAN

CITY           SKY/WX    TMP DP  RH WIND       PRES   REMARKS
MANISTIQUE     CLOUDY    34  33  97 W5        29.67R WCI  30
ESCANABA       LGT RAIN  34  31  88 W12       29.69R WCI  25
MENOMINEE      CLOUDY    36  30  79 W9G16     29.72R WCI  29
SAWYER-GWINN   MIX PCPN  29  26  89 SW7       29.65R WCI  22
$$
MIZ001>003-009>011-084-280600-
WESTERN UPPER MICHIGAN

CITY           SKY/WX    TMP DP  RH WIND       PRES   REMARKS
IRON MOUNTAIN  CLOUDY    31  25  78 W8        29.65R WCI  23
HOUGHTON       LGT SNOW  29  24  82 W15       29.58S WCI  18
COPPER HARBOR    N/A     30  25  81 VRB7      29.59R WCI  23
IRONWOOD       CLOUDY    27  25  92 W14       29.66R FOG     WCI  16
$$

ABBREVIATIONS USED IN REMARKS
   TC - TEMPERATURE IN CELSIUS
  WCI - WIND CHILL INDEX
   HX - HEAT INDEX
  VSB - VISIBILITY





USA.gov is the U.S. government's official web portal to all federal, state and local government web resources and services.